Weather History for Penticton, BC

Change the Weather History Date:

Monday, September 24, 2012

  Actual Average Record
Temperature  
Mean Temperature 60 °F -  
Max Temperature 78 °F 61 °F 89 °F (2011)
Min Temperature 43 °F 39 °F 33 °F (2000)
Degree Days  
Heating Degree Days 4    
Growing Degree Days 10 (Base 50)    
Moisture  
Dew Point 48 °F    
Average Humidity 60    
Maximum Humidity 87    
Minimum Humidity 33    
Precipitation  
Precipitation 0.00 in 0.02 in - ()
Sea Level Pressure  
Sea Level Pressure 29.98 in    
Wind  
Wind Speed 3 mph ()    
Max Wind Speed 13 mph    
Max Gust Speed 18 mph    
Visibility 13.5 miles    
Events      
Averages and records for this station are not official NWS values.
T = Trace of Precipitation, MM = Missing Value Source: Averaged Metar Reports

Daily Weather History Graph

Daily Weather History Graph

Search for Another Location

Airport:

Trip Planner

Search our weather history database for the weather conditions in past years. The results will help you decide how hot, cold, wet, or windy it might be!

Date:

Astronomy

Sep. 24, 2012 Rise Set
Actual Time 6:48 AM PDT 6:50 PM PDT
Civil Twilight 6:16 AM PDT 7:22 PM PDT
Nautical Twilight 5:39 AM PDT 7:59 PM PDT
Astronomical Twilight 5:00 AM PDT 8:38 PM PDT
Moon 4:03 PM PDT (9/24) 12:43 AM PDT (9/24)
Length of Visible Light 13h 05m
Length of Day
12h 02m
Waxing Gibbous, 71% of the Moon is Illuminated
Sep 24
Waxing Gibbous
Sep 29
Full
Oct 8
Last Quarter
Oct 15
New
Oct 21
First Quarter

Hourly Weather History & Observations

Time (PDT) Temp. Windchill Dew Point Humidity Pressure Visibility Wind Dir Wind Speed Gust Speed Precip Events Conditions
12:00 AM 55.4 °F - 46.4 °F 72% 30.03 in 15.0 mi Calm Calm - N/A   Clear
1:00 AM 55.4 °F - 46.4 °F 72% 30.04 in 15.0 mi East 3.5 mph - N/A   Clear
2:00 AM 50.0 °F - 44.6 °F 82% 30.04 in 15.0 mi Calm Calm - N/A   Clear
3:00 AM 48.2 °F - 44.6 °F 87% 30.04 in 15.0 mi Calm Calm - N/A   Clear
4:00 AM 46.4 °F 45.2 °F 41.0 °F 81% 30.04 in 15.0 mi NNE 3.5 mph - N/A   Clear
5:00 AM 47 °F - 43 °F 81% 30.05 in - Calm Calm - -  
5:00 AM 48.2 °F - 42.8 °F 82% 30.05 in 15.0 mi Calm Calm - N/A   Clear
6:00 AM 42.8 °F - 39.2 °F 87% 30.06 in 15.0 mi Calm Calm - N/A   Clear
7:00 AM 46.4 °F 45.2 °F 41.0 °F 81% 30.08 in 15.0 mi North 3.5 mph - N/A   Partly Cloudy
8:00 AM 48.2 °F - 42.8 °F 82% 30.08 in 15.0 mi North 2.3 mph - N/A   Clear
9:00 AM 57.2 °F - 48.2 °F 72% 30.07 in 15.0 mi Calm Calm - N/A   Clear
10:00 AM 62.6 °F - 50.0 °F 63% 30.06 in 12.0 mi Calm Calm - N/A   Clear
11:00 AM 65 °F - 48 °F 43% 30.03 in - SSE 2.3 mph - -  
11:00 AM 66.2 °F - 48.2 °F 52% 30.03 in 15.0 mi Calm Calm - N/A   Clear
12:00 PM 68.0 °F - 48.2 °F 49% 30.00 in 12.0 mi SSW 3.5 mph - N/A   Clear
1:00 PM 73.4 °F - 51.8 °F 47% 29.96 in 12.0 mi SSE 10.4 mph - N/A   Clear
2:00 PM 75.2 °F - 51.8 °F 44% 29.93 in 15.0 mi SSE 12.7 mph 18.4 mph N/A   Clear
3:00 PM 77.0 °F - 50.0 °F 39% 29.90 in 15.0 mi South 12.7 mph - N/A   Partly Cloudy
4:00 PM 78.8 °F - 51.8 °F 39% 29.88 in 15.0 mi South 12.7 mph 18.4 mph N/A   Scattered Clouds
5:00 PM 76 °F - 52 °F 33% 29.88 in 10 mi South 11.5 mph - -   Haze
5:00 PM 77.0 °F - 51.8 °F 41% 29.88 in 10.0 mi South 10.4 mph - N/A   Scattered Clouds
6:00 PM 75.2 °F - 51.8 °F 44% 29.88 in 12.0 mi South 11.5 mph - N/A   Mostly Cloudy
7:00 PM 73.4 °F - 51.8 °F 47% 29.89 in 10.0 mi South 11.5 mph - N/A   Mostly Cloudy
8:00 PM 71.6 °F - 53.6 °F 53% 29.89 in 10.0 mi SSE 8.1 mph - N/A   Scattered Clouds
9:00 PM 69.8 °F - 53.6 °F 56% 29.90 in 15.0 mi South 9.2 mph - N/A   Mostly Cloudy
11:00 PM 64 °F - 48 °F 45% 29.91 in 12 mi Calm Calm - -   Haze
11:00 PM 64.4 °F - 48.2 °F 56% 29.91 in 12.0 mi North 3.5 mph - N/A   Mostly Cloudy